カタログに戻る

STARLINK-38246

運用中通信SSO
NORAD 100247·PAYLOAD·🇺🇸 United States

打ち上げ Aug 8, 2026 から Vandenberg Space Force Base

Loading…

次のパス (今後24時間)

TLE

最新Source: Space-Track

元期: Sep 14, 2026, 14:58 UTC

1 A0247U 26181B   26257.62380019  .00187597  00000-0  12282-2 0  9996
2 A0247  97.2822 300.9028 0002174  18.0253 342.1089 15.75246011  6982

AllMySatでSTARLINK-38246をリアルタイム追跡

Download on the App Store